TimeEDT,TemperatureF,Dew PointF,Humidity,Sea Level PressureIn,VisibilityMPH,Wind Direction,Wind SpeedMPH,Gust SpeedMPH,PrecipitationIn,Events,Conditions,WindDirDegrees,DateUTC
12:53 AM,45.0,41.0,86,30.05,10.0,Calm,Calm,-,N/A,,Clear,0,2012-09-17 04:53:00
1:53 AM,46.0,41.0,83,30.06,10.0,Calm,Calm,-,N/A,,Clear,0,2012-09-17 05:53:00
2:53 AM,43.0,37.9,82,30.06,10.0,Calm,Calm,-,N/A,,Clear,0,2012-09-17 06:53:00
3:53 AM,42.1,37.0,82,30.06,10.0,Calm,Calm,-,N/A,,Clear,0,2012-09-17 07:53:00
4:53 AM,43.0,37.9,82,30.06,10.0,Calm,Calm,-,N/A,,Clear,0,2012-09-17 08:53:00
5:53 AM,39.9,36.0,86,30.07,10.0,Calm,Calm,-,N/A,,Clear,0,2012-09-17 09:53:00
6:53 AM,43.0,37.9,82,30.09,10.0,Calm,Calm,-,N/A,,Clear,0,2012-09-17 10:53:00
7:53 AM,57.0,51.1,81,30.09,10.0,Calm,Calm,-,N/A,,Clear,0,2012-09-17 11:53:00
8:53 AM,69.1,52.0,54,30.10,10.0,Calm,Calm,-,N/A,,Clear,0,2012-09-17 12:53:00
10:53 AM,72.0,53.1,51,30.11,10.0,West,8.1,-,N/A,,Clear,260,2012-09-17 14:53:00
11:53 AM,71.1,48.0,44,30.10,10.0,West,6.9,-,N/A,,Clear,270,2012-09-17 15:53:00
12:53 PM,72.0,48.9,44,30.10,10.0,West,5.8,-,N/A,,Clear,260,2012-09-17 16:53:00
1:53 PM,75.0,48.9,40,30.08,10.0,WSW,8.1,-,N/A,,Clear,240,2012-09-17 17:53:00
2:53 PM,73.0,48.9,42,30.07,10.0,West,6.9,-,N/A,,Clear,270,2012-09-17 18:53:00
3:53 PM,72.0,52.0,49,30.06,10.0,SSW,10.4,-,N/A,,Clear,210,2012-09-17 19:53:00
4:53 PM,71.1,52.0,51,30.06,10.0,SW,9.2,-,N/A,,Clear,220,2012-09-17 20:53:00
5:53 PM,69.1,53.1,57,30.06,10.0,SW,4.6,-,N/A,,Clear,220,2012-09-17 21:53:00
6:53 PM,64.0,53.1,67,30.07,10.0,SW,3.5,-,N/A,,Clear,230,2012-09-17 22:53:00
7:53 PM,57.0,51.1,81,30.08,10.0,Calm,Calm,-,N/A,,Clear,0,2012-09-17 23:53:00
8:53 PM,53.1,48.0,83,30.10,10.0,Calm,Calm,-,N/A,,Clear,0,2012-09-18 00:53:00
9:53 PM,51.1,46.0,83,30.09,10.0,Calm,Calm,-,N/A,,Clear,0,2012-09-18 01:53:00
10:53 PM,50.0,46.0,86,30.10,10.0,Calm,Calm,-,N/A,,Clear,0,2012-09-18 02:53:00
11:53 PM,50.0,45.0,83,30.09,10.0,Calm,Calm,-,N/A,,Clear,0,2012-09-18 03:53:00